When you browse on this site, cookies collect data to enhance your experience and personalize the content and advertising you see.
Visit our Privacy Policy to learn more. By continuing to use the site, you agree to this use of cookies and data.
  • In Hungary
  • List of Countries
  • For 7 days
  • Water Temperature
  • Satellite Maps
  • Weather Map
  • News
  • Weather Widgets
  • user-avatar
    Login

    Hourly Weather Chhabra

    Today, 18 November, Sunday

    Time Temperature Precipitation Wind Pressure Humidity
    00:00 +23°C° 0 mm 1 mps 731 mmHg 31%
    01:00 +22°C° 0 mm 1 mps 731 mmHg 31%
    02:00 +22°C° 0 mm 1 mps 730 mmHg 32%
    03:00 +22°C° 0 mm 1 mps 731 mmHg 32%
    04:00 +21°C° 0 mm 1 mps 731 mmHg 33%
    05:00 +21°C° 0 mm 1 mps 731 mmHg 34%
    06:00 +22°C° 0 mm 1 mps 731 mmHg 32%
    07:00 +23°C° 0 mm 1 mps 731 mmHg 31%
    08:00 +24°C° 0 mm 1 mps 732 mmHg 30%
    09:00 +27°C° 0 mm 1 mps 732 mmHg 26%
    10:00 +29°C° 0 mm 1 mps 732 mmHg 23%
    11:00 +31°C° 0 mm 1 mps 732 mmHg 19%
    12:00 +32°C° 0 mm 1 mps 732 mmHg 19%
    13:00 +33°C° 0 mm 1 mps 731 mmHg 18%
    14:00 +31°C° 0 mm 0 mps 730 mmHg 17%
    15:00 +30°C° 0 mm 0 mps 730 mmHg 19%
    16:00 +28°C° 0 mm 0 mps 730 mmHg 22%
    17:00 +29°C° 0 mm 1 mps 730 mmHg 24%
    18:00 +28°C° 0 mm 1 mps 730 mmHg 25%
    19:00 +27°C° 0 mm 2 mps 731 mmHg 25%
    20:00 +26°C° 0 mm 2 mps 731 mmHg 26%
    21:00 +26°C° 0 mm 2 mps 731 mmHg 27%
    22:00 +25°C° 0 mm 2 mps 731 mmHg 28%
    23:00 +24°C° 0 mm 3 mps 731 mmHg 30%

    Tomorrow, 19 November, Monday

    Time Temperature Precipitation Wind Pressure Humidity
    00:00 +24°C° 0 mm 3 mps 731 mmHg 30%
    01:00 +24°C° 0 mm 3 mps 731 mmHg 30%
    02:00 +22°C° 0 mm 3 mps 731 mmHg 30%
    03:00 +22°C° 0 mm 3 mps 731 mmHg 30%
    04:00 +21°C° 0 mm 3 mps 731 mmHg 30%
    05:00 +21°C° 0 mm 3 mps 731 mmHg 30%
    06:00 +22°C° 0 mm 3 mps 732 mmHg 30%
    07:00 +24°C° 0 mm 3 mps 732 mmHg 30%
    08:00 +25°C° 0 mm 3 mps 733 mmHg 30%
    09:00 +28°C° 0 mm 3 mps 733 mmHg 27%
    10:00 +30°C° 0 mm 3 mps 733 mmHg 25%
    11:00 +34°C° 0 mm 3 mps 734 mmHg 22%
    12:00 +34°C° 0 mm 2 mps 733 mmHg 22%
    13:00 +35°C° 0 mm 2 mps 732 mmHg 21%
    14:00 +35°C° 0 mm 2 mps 732 mmHg 20%
    15:00 +33°C° 0 mm 1 mps 731 mmHg 22%
    16:00 +31°C° 0 mm 1 mps 731 mmHg 25%
    17:00 +30°C° 0 mm 1 mps 731 mmHg 27%
    18:00 +29°C° 0 mm 1 mps 732 mmHg 28%
    19:00 +28°C° 0 mm 2 mps 732 mmHg 28%
    20:00 +27°C° 0 mm 2 mps 732 mmHg 29%
    21:00 +26°C° 0 mm 2 mps 732 mmHg 30%
    22:00 +26°C° 0 mm 3 mps 732 mmHg 31%
    23:00 +25°C° 0 mm 3 mps 732 mmHg 32%

    Day after tomorrow, 20 November, Tuesday

    Time Temperature Precipitation Wind Pressure Humidity
    00:00 +25°C° 0 mm 3 mps 732 mmHg 32%
    01:00 +24°C° 0 mm 3 mps 732 mmHg 33%
    02:00 +24°C° 0 mm 3 mps 732 mmHg 33%
    03:00 +23°C° 0 mm 2 mps 732 mmHg 34%
    04:00 +23°C° 0 mm 2 mps 732 mmHg 34%
    05:00 +23°C° 0 mm 2 mps 732 mmHg 35%
    06:00 +24°C° 0 mm 2 mps 733 mmHg 35%
    07:00 +25°C° 0 mm 2 mps 733 mmHg 35%
    08:00 +26°C° 0 mm 2 mps 734 mmHg 36%
    09:00 +28°C° 0 mm 1 mps 734 mmHg 33%
    10:00 +30°C° 0 mm 1 mps 734 mmHg 29%
    11:00 +31°C° 0 mm 0 mps 734 mmHg 26%
    12:00 +33°C° 0 mm 1 mps 733 mmHg 24%
    13:00 +33°C° 0 mm 1 mps 732 mmHg 22%
    14:00 +35°C° 0 mm 2 mps 732 mmHg 20%
    15:00 +32°C° 0 mm 2 mps 732 mmHg 22%
    16:00 +31°C° 0 mm 2 mps 731 mmHg 25%
    17:00 +30°C° 0 mm 3 mps 731 mmHg 27%
    18:00 +29°C° 0 mm 3 mps 732 mmHg 28%
    19:00 +27°C° 0 mm 3 mps 732 mmHg 29%
    20:00 +26°C° 0 mm 3 mps 733 mmHg 31%
    21:00 +26°C° 0 mm 3 mps 733 mmHg 32%
    22:00 +25°C° 0 mm 3 mps 733 mmHg 32%
    23:00 +25°C° 0 mm 3 mps 733 mmHg 33%

    21 November, Wednesday

    Time Temperature Precipitation Wind Pressure Humidity
    00:00 +24°C° 0 mm 3 mps 733 mmHg 34%
    01:00 +24°C° 0 mm 3 mps 733 mmHg 35%
    02:00 +22°C° 0 mm 3 mps 732 mmHg 36%
    03:00 +23°C° 0 mm 2 mps 732 mmHg 38%
    04:00 +23°C° 0 mm 2 mps 732 mmHg 39%
    05:00 +21°C° 0 mm 2 mps 732 mmHg 40%
    06:00 +23°C° 0 mm 2 mps 733 mmHg 39%
    07:00 +24°C° 0 mm 2 mps 734 mmHg 38%
    08:00 +25°C° 0 mm 2 mps 734 mmHg 38%
    09:00 +27°C° 0 mm 2 mps 734 mmHg 33%
    10:00 +29°C° 0 mm 2 mps 734 mmHg 28%
    11:00 +31°C° 0 mm 2 mps 734 mmHg 23%
    12:00 +32°C° 0 mm 2 mps 733 mmHg 22%
    13:00 +32°C° 0 mm 2 mps 733 mmHg 21%
    14:00 +34°C° 0 mm 2 mps 732 mmHg 20%
    15:00 +31°C° 0 mm 2 mps 732 mmHg 22%
    16:00 +30°C° 0 mm 2 mps 732 mmHg 24%
    17:00 +29°C° 0 mm 3 mps 732 mmHg 27%
    18:00 +28°C° 0 mm 3 mps 732 mmHg 27%
    19:00 +26°C° 0 mm 3 mps 733 mmHg 27%
    20:00 +25°C° 0 mm 3 mps 733 mmHg 27%
    21:00 +25°C° 0 mm 3 mps 734 mmHg 28%
    22:00 +24°C° 0 mm 3 mps 734 mmHg 28%
    23:00 +24°C° 0 mm 2 mps 734 mmHg 28%

    22 November, Thursday

    Time Temperature Precipitation Wind Pressure Humidity
    00:00 +24°C° 0 mm 2 mps 733 mmHg 28%
    01:00 +23°C° 0 mm 2 mps 733 mmHg 28%
    02:00 +23°C° 0 mm 2 mps 733 mmHg 28%
    03:00 +23°C° 0 mm 2 mps 733 mmHg 28%
    04:00 +21°C° 0 mm 2 mps 733 mmHg 28%
    05:00 +21°C° 0 mm 2 mps 733 mmHg 28%
    06:00 +23°C° 0 mm 2 mps 734 mmHg 28%
    07:00 +24°C° 0 mm 2 mps 734 mmHg 28%
    08:00 +25°C° 0 mm 2 mps 735 mmHg 28%
    09:00 +27°C° 0 mm 2 mps 735 mmHg 25%
    10:00 +29°C° 0 mm 2 mps 735 mmHg 22%
    11:00 +31°C° 0 mm 2 mps 735 mmHg 19%
    12:00 +32°C° 0 mm 2 mps 734 mmHg 20%
    13:00 +32°C° 0 mm 1 mps 733 mmHg 21%
    14:00 +31°C° 0 mm 0 mps 733 mmHg 21%
    15:00 +31°C° 0 mm 1 mps 733 mmHg 24%
    16:00 +30°C° 0 mm 1 mps 733 mmHg 26%
    17:00 +29°C° 0 mm 2 mps 733 mmHg 28%
    18:00 +28°C° 0 mm 2 mps 733 mmHg 29%
    19:00 +27°C° 0 mm 3 mps 734 mmHg 29%
    20:00 +26°C° 0 mm 3 mps 735 mmHg 29%
    21:00 +25°C° 0 mm 3 mps 735 mmHg 29%
    22:00 +24°C° 0 mm 3 mps 735 mmHg 28%
    23:00 +24°C° 0 mm 3 mps 735 mmHg 28%

    23 November, Friday

    Time Temperature Precipitation Wind Pressure Humidity
    00:00 +22°C° 0 mm 3 mps 734 mmHg 28%
    01:00 +23°C° 0 mm 2 mps 734 mmHg 27%
    02:00 +21°C° 0 mm 2 mps 734 mmHg 27%
    03:00 +21°C° 0 mm 2 mps 734 mmHg 27%
    04:00 +21°C° 0 mm 1 mps 734 mmHg 28%
    05:00 +21°C° 0 mm 1 mps 734 mmHg 28%
    06:00 +22°C° 0 mm 1 mps 735 mmHg 27%
    07:00 +23°C° 0 mm 1 mps 735 mmHg 27%
    08:00 +24°C° 0 mm 1 mps 736 mmHg 26%
    09:00 +26°C° 0 mm 1 mps 736 mmHg 23%
    10:00 +28°C° 0 mm 2 mps 736 mmHg 19%
    11:00 +30°C° 0 mm 2 mps 736 mmHg 16%
    12:00 +31°C° 0 mm 2 mps 735 mmHg 15%
    13:00 +31°C° 0 mm 3 mps 735 mmHg 15%
    14:00 +33°C° 0 mm 3 mps 734 mmHg 14%
    15:00 +30°C° 0 mm 3 mps 734 mmHg 17%
    16:00 +29°C° 0 mm 3 mps 734 mmHg 20%
    17:00 +27°C° 0 mm 2 mps 734 mmHg 22%
    18:00 +26°C° 0 mm 2 mps 734 mmHg 23%
    19:00 +25°C° 0 mm 1 mps 735 mmHg 24%
    20:00 +24°C° 0 mm 1 mps 735 mmHg 25%
    21:00 +24°C° 0 mm 1 mps 735 mmHg 26%
    22:00 +23°C° 0 mm 1 mps 735 mmHg 26%
    23:00 +23°C° 0 mm 1 mps 735 mmHg 27%
    Show more